Time,TemperatureF,DewpointF,PressureIn,WindDirection,WindDirectionDegrees,WindSpeedMPH,WindSpeedGustMPH,Humidity,HourlyPrecipIn,Conditions,Clouds,dailyrainin,SoftwareType,DateUTC
2013-01-08 00:02:00,29.0,26.0,30.13,South,173,2.0,4.0,87,0.00,,,0.00,,2013-01-08 06:02:00,
2013-01-08 00:12:00,29.0,26.0,30.13,South,173,2.0,4.0,87,0.00,,,0.00,,2013-01-08 06:12:00,
2013-01-08 00:22:00,28.0,25.0,30.13,South,171,2.0,4.0,87,0.00,,,0.00,,2013-01-08 06:22:00,
2013-01-08 00:32:00,28.0,25.0,30.12,South,184,2.0,3.0,88,0.00,,,0.00,,2013-01-08 06:32:00,
2013-01-08 00:42:00,28.0,25.0,30.12,South,184,2.0,3.0,88,0.00,,,0.00,,2013-01-08 06:42:00,
2013-01-08 00:53:00,27.0,24.0,30.12,South,177,1.0,4.0,88,0.00,,,0.00,,2013-01-08 06:53:00,
2013-01-08 01:02:00,27.0,24.0,30.12,South,179,1.0,4.0,88,0.00,,,0.00,,2013-01-08 07:02:00,
2013-01-08 01:12:00,27.0,24.0,30.12,South,179,1.0,4.0,88,0.00,,,0.00,,2013-01-08 07:12:00,
2013-01-08 01:22:00,26.0,23.0,30.13,South,175,1.0,4.0,89,0.00,,,0.00,,2013-01-08 07:22:00,
2013-01-08 01:32:00,26.0,23.0,30.13,SSE,167,2.0,4.0,90,0.00,,,0.00,,2013-01-08 07:32:00,
2013-01-08 01:42:00,26.0,23.0,30.13,SSE,167,2.0,4.0,90,0.00,,,0.00,,2013-01-08 07:42:00,
2013-01-08 01:52:00,26.0,23.0,30.13,South,180,2.0,5.0,90,0.00,,,0.00,,2013-01-08 07:52:00,
2013-01-08 02:02:00,26.0,23.0,30.13,South,186,2.0,4.0,90,0.00,,,0.00,,2013-01-08 08:02:00,
2013-01-08 02:12:00,26.0,23.0,30.13,South,186,2.0,4.0,90,0.00,,,0.00,,2013-01-08 08:12:00,
2013-01-08 02:22:00,26.0,23.0,30.13,South,181,3.0,5.0,90,0.00,,,0.00,,2013-01-08 08:22:00,
2013-01-08 02:32:00,26.0,24.0,30.13,South,171,3.0,5.0,91,0.00,,,0.00,,2013-01-08 08:32:00,
2013-01-08 02:42:00,26.0,24.0,30.13,South,171,3.0,5.0,91,0.00,,,0.00,,2013-01-08 08:42:00,
2013-01-08 02:53:00,26.0,23.0,30.13,South,188,3.0,6.0,90,0.00,,,0.00,,2013-01-08 08:53:00,
2013-01-08 03:02:00,27.0,24.0,30.13,South,172,3.0,6.0,90,0.00,,,0.00,,2013-01-08 09:02:00,
2013-01-08 03:12:00,27.0,24.0,30.13,South,172,3.0,6.0,90,0.00,,,0.00,,2013-01-08 09:12:00,
2013-01-08 03:22:00,27.0,24.0,30.12,South,184,4.0,6.0,90,0.00,,,0.00,,2013-01-08 09:22:00,
2013-01-08 03:32:00,27.0,24.0,30.12,SSW,194,3.0,6.0,90,0.00,,,0.00,,2013-01-08 09:32:00,
2013-01-08 03:42:00,27.0,24.0,30.12,SSW,194,3.0,6.0,90,0.00,,,0.00,,2013-01-08 09:42:00,
2013-01-08 03:52:00,27.0,24.0,30.12,SSW,194,4.0,9.0,89,0.00,,,0.00,,2013-01-08 09:52:00,
2013-01-08 04:02:00,28.0,25.0,30.12,South,179,3.0,7.0,89,0.00,,,0.00,,2013-01-08 10:02:00,
2013-01-08 04:12:00,28.0,25.0,30.12,South,179,3.0,7.0,89,0.00,,,0.00,,2013-01-08 10:12:00,
2013-01-08 04:22:00,28.0,25.0,30.12,South,183,3.0,7.0,88,0.00,,,0.00,,2013-01-08 10:22:00,
2013-01-08 04:32:00,28.0,25.0,30.12,South,184,3.0,8.0,88,0.00,,,0.00,,2013-01-08 10:32:00,
2013-01-08 04:42:00,28.0,25.0,30.12,South,184,3.0,8.0,88,0.00,,,0.00,,2013-01-08 10:42:00,
2013-01-08 04:52:00,28.0,25.0,30.11,SSE,168,3.0,7.0,88,0.00,,,0.00,,2013-01-08 10:52:00,
2013-01-08 05:02:00,28.0,25.0,30.12,SSW,195,4.0,7.0,88,0.00,,,0.00,,2013-01-08 11:02:00,
2013-01-08 05:12:00,28.0,25.0,30.12,SSW,195,4.0,7.0,88,0.00,,,0.00,,2013-01-08 11:12:00,
2013-01-08 05:22:00,28.0,25.0,30.11,South,184,5.0,9.0,88,0.00,,,0.00,,2013-01-08 11:22:00,
2013-01-08 05:32:00,28.0,25.0,30.12,SSW,194,4.0,9.0,87,0.00,,,0.00,,2013-01-08 11:32:00,
2013-01-08 05:42:00,28.0,25.0,30.12,SSW,194,4.0,9.0,87,0.00,,,0.00,,2013-01-08 11:42:00,
2013-01-08 05:53:00,28.0,25.0,30.12,South,187,5.0,9.0,87,0.00,,,0.00,,2013-01-08 11:53:00,
2013-01-08 06:02:00,28.0,24.0,30.12,South,177,5.0,9.0,86,0.00,,,0.00,,2013-01-08 12:02:00,
2013-01-08 06:12:00,28.0,24.0,30.12,South,177,5.0,9.0,86,0.00,,,0.00,,2013-01-08 12:12:00,
2013-01-08 06:22:00,28.0,24.0,30.12,South,186,4.0,8.0,86,0.00,,,0.00,,2013-01-08 12:22:00,
2013-01-08 06:32:00,28.0,24.0,30.13,South,186,4.0,7.0,86,0.00,,,0.00,,2013-01-08 12:32:00,
2013-01-08 06:42:00,28.0,24.0,30.13,South,186,4.0,7.0,86,0.00,,,0.00,,2013-01-08 12:42:00,
2013-01-08 06:53:00,27.0,24.0,30.13,SSE,161,3.0,6.0,87,0.00,,,0.00,,2013-01-08 12:53:00,
2013-01-08 07:03:00,27.0,24.0,30.13,South,190,3.0,6.0,87,0.00,,,0.00,,2013-01-08 13:03:00,
2013-01-08 07:12:00,27.0,24.0,30.13,South,190,3.0,6.0,87,0.00,,,0.00,,2013-01-08 13:12:00,
2013-01-08 07:22:00,26.0,23.0,30.13,South,173,4.0,6.0,88,0.00,,,0.00,,2013-01-08 13:22:00,
2013-01-08 07:32:00,26.0,23.0,30.14,SSE,164,3.0,8.0,88,0.00,,,0.00,,2013-01-08 13:32:00,
2013-01-08 07:42:00,26.0,23.0,30.14,SSE,164,3.0,8.0,88,0.00,,,0.00,,2013-01-08 13:42:00,
2013-01-08 07:53:00,27.0,24.0,30.14,South,186,4.0,8.0,87,0.00,,,0.00,,2013-01-08 13:53:00,
2013-01-08 08:02:00,27.0,24.0,30.14,South,186,4.0,8.0,87,0.00,,,0.00,,2013-01-08 14:02:00,
2013-01-08 08:12:00,27.0,24.0,30.14,South,186,4.0,8.0,87,0.00,,,0.00,,2013-01-08 14:12:00,
2013-01-08 08:23:00,27.0,24.0,30.14,South,186,4.0,8.0,87,0.00,,,0.00,,2013-01-08 14:23:00,
2013-01-08 08:33:00,28.0,25.0,30.15,SSW,194,3.0,6.0,87,0.00,,,0.00,,2013-01-08 14:33:00,
2013-01-08 08:43:00,28.0,25.0,30.15,SSW,194,3.0,6.0,87,0.00,,,0.00,,2013-01-08 14:43:00,
2013-01-08 08:53:00,28.0,25.0,30.15,South,180,4.0,8.0,88,0.00,,,0.00,,2013-01-08 14:53:00,
2013-01-08 09:02:00,29.0,26.0,30.16,SSW,200,2.0,5.0,87,0.00,,,0.00,,2013-01-08 15:02:00,
2013-01-08 09:12:00,29.0,26.0,30.16,SSW,200,2.0,5.0,87,0.00,,,0.00,,2013-01-08 15:12:00,
2013-01-08 09:22:00,30.0,26.0,30.16,SSE,166,4.0,6.0,86,0.00,,,0.00,,2013-01-08 15:22:00,
2013-01-08 09:33:00,31.0,27.0,30.16,South,178,5.0,7.0,84,0.00,,,0.00,,2013-01-08 15:33:00,
2013-01-08 09:43:00,31.0,27.0,30.16,South,178,5.0,7.0,84,0.00,,,0.00,,2013-01-08 15:43:00,
2013-01-08 09:53:00,32.0,27.0,30.15,South,171,5.0,11.0,83,0.00,,,0.00,,2013-01-08 15:53:00,
2013-01-08 10:03:00,33.0,28.0,30.15,South,173,4.0,8.0,82,0.00,,,0.00,,2013-01-08 16:03:00,
2013-01-08 10:12:00,33.0,28.0,30.15,South,173,4.0,8.0,82,0.00,,,0.00,,2013-01-08 16:12:00,
2013-01-08 10:22:00,34.0,28.0,30.16,South,183,5.0,9.0,80,0.00,,,0.00,,2013-01-08 16:22:00,
2013-01-08 10:33:00,34.0,28.0,30.16,SSW,213,4.0,8.0,80,0.00,,,0.00,,2013-01-08 16:33:00,
2013-01-08 10:42:00,34.0,28.0,30.16,SSW,213,4.0,8.0,80,0.00,,,0.00,,2013-01-08 16:42:00,
2013-01-08 10:53:00,35.0,29.0,30.16,South,180,3.0,8.0,79,0.00,,,0.00,,2013-01-08 16:53:00,
2013-01-08 11:03:00,35.0,29.0,30.16,South,188,5.0,11.0,77,0.00,,,0.00,,2013-01-08 17:03:00,
2013-01-08 11:13:00,35.0,29.0,30.16,South,188,5.0,11.0,77,0.00,,,0.00,,2013-01-08 17:13:00,
2013-01-08 11:23:00,35.0,29.0,30.16,South,188,5.0,11.0,77,0.00,,,0.00,,2013-01-08 17:23:00,
2013-01-08 11:33:00,37.0,30.0,30.14,WSW,240,3.0,9.0,75,0.00,,,0.00,,2013-01-08 17:33:00,
2013-01-08 11:43:00,37.0,30.0,30.14,WSW,240,3.0,9.0,75,0.00,,,0.00,,2013-01-08 17:43:00,
2013-01-08 11:54:00,38.0,30.0,30.14,SSW,205,4.0,7.0,73,0.00,,,0.00,,2013-01-08 17:54:00,
2013-01-08 12:03:00,39.0,30.0,30.13,SSW,194,4.0,8.0,70,0.00,,,0.00,,2013-01-08 18:03:00,
2013-01-08 12:13:00,39.0,30.0,30.13,SSW,194,4.0,8.0,70,0.00,,,0.00,,2013-01-08 18:13:00,
2013-01-08 12:23:00,41.0,31.0,30.12,South,185,5.0,8.0,68,0.00,,,0.00,,2013-01-08 18:23:00,
2013-01-08 12:33:00,42.0,31.0,30.12,SSE,160,5.0,10.0,65,0.00,,,0.00,,2013-01-08 18:33:00,
2013-01-08 12:43:00,42.0,31.0,30.12,SSE,160,5.0,10.0,65,0.00,,,0.00,,2013-01-08 18:43:00,
2013-01-08 12:53:00,43.0,31.0,30.11,SSE,158,4.0,10.0,63,0.00,,,0.00,,2013-01-08 18:53:00,
2013-01-08 13:03:00,44.0,31.0,30.11,SW,235,3.0,11.0,61,0.00,,,0.00,,2013-01-08 19:03:00,
2013-01-08 13:12:00,44.0,31.0,30.11,SW,235,3.0,11.0,61,0.00,,,0.00,,2013-01-08 19:12:00,
2013-01-08 13:22:00,45.0,31.0,30.10,South,190,4.0,11.0,58,0.00,,,0.00,,2013-01-08 19:22:00,
2013-01-08 13:32:00,46.0,31.0,30.10,South,169,4.0,11.0,56,0.00,,,0.00,,2013-01-08 19:32:00,
2013-01-08 13:42:00,46.0,31.0,30.10,South,169,4.0,11.0,56,0.00,,,0.00,,2013-01-08 19:42:00,
2013-01-08 13:53:00,45.0,31.0,30.10,SSE,167,4.0,8.0,57,0.00,,,0.00,,2013-01-08 19:53:00,
2013-01-08 14:03:00,46.0,31.0,30.10,SSE,161,5.0,10.0,56,0.00,,,0.00,,2013-01-08 20:03:00,
2013-01-08 14:12:00,46.0,31.0,30.10,SSE,161,5.0,10.0,56,0.00,,,0.00,,2013-01-08 20:12:00,
2013-01-08 14:23:00,45.0,31.0,30.09,South,169,6.0,13.0,58,0.00,,,0.00,,2013-01-08 20:23:00,
2013-01-08 14:33:00,45.0,31.0,30.09,South,169,6.0,13.0,58,0.00,,,0.00,,2013-01-08 20:33:00,
2013-01-08 14:43:00,45.0,31.0,30.09,South,169,6.0,13.0,58,0.00,,,0.00,,2013-01-08 20:43:00,
2013-01-08 14:53:00,46.0,32.0,30.09,South,182,5.0,10.0,58,0.00,,,0.00,,2013-01-08 20:53:00,
2013-01-08 15:03:00,44.0,31.0,30.09,South,182,5.0,9.0,60,0.00,,,0.00,,2013-01-08 21:03:00,
2013-01-08 15:13:00,44.0,31.0,30.09,South,182,5.0,9.0,60,0.00,,,0.00,,2013-01-08 21:13:00,
2013-01-08 15:23:00,44.0,32.0,30.09,South,182,6.0,10.0,62,0.00,,,0.00,,2013-01-08 21:23:00,
2013-01-08 15:33:00,45.0,33.0,30.09,SSW,194,4.0,9.0,62,0.00,,,0.00,,2013-01-08 21:33:00,
2013-01-08 15:43:00,45.0,33.0,30.09,SSW,194,4.0,9.0,62,0.00,,,0.00,,2013-01-08 21:43:00,
2013-01-08 15:53:00,45.0,34.0,30.09,South,170,4.0,9.0,64,0.00,,,0.00,,2013-01-08 21:53:00,
2013-01-08 16:03:00,44.0,33.0,30.09,South,179,4.0,8.0,65,0.00,,,0.00,,2013-01-08 22:03:00,
2013-01-08 16:12:00,44.0,33.0,30.09,South,179,4.0,8.0,65,0.00,,,0.00,,2013-01-08 22:12:00,
2013-01-08 16:23:00,43.0,33.0,30.07,SSW,195,4.0,7.0,68,0.00,,,0.00,,2013-01-08 22:23:00,
2013-01-08 16:32:00,43.0,33.0,30.07,SSW,195,4.0,7.0,68,0.00,,,0.00,,2013-01-08 22:32:00,
2013-01-08 16:42:00,43.0,33.0,30.07,SSW,195,4.0,7.0,68,0.00,,,0.00,,2013-01-08 22:42:00,
2013-01-08 16:53:00,40.0,32.0,30.07,South,187,4.0,7.0,72,0.00,,,0.00,,2013-01-08 22:53:00,
2013-01-08 17:02:00,39.0,32.0,30.07,South,186,2.0,7.0,76,0.00,,,0.00,,2013-01-08 23:02:00,
2013-01-08 17:12:00,39.0,32.0,30.07,South,186,2.0,7.0,76,0.00,,,0.00,,2013-01-08 23:12:00,
2013-01-08 17:22:00,37.0,32.0,30.07,South,188,3.0,6.0,81,0.00,,,0.00,,2013-01-08 23:22:00,
2013-01-08 17:32:00,37.0,32.0,30.08,South,175,5.0,8.0,83,0.00,,,0.00,,2013-01-08 23:32:00,
2013-01-08 17:43:00,37.0,32.0,30.08,South,175,5.0,8.0,83,0.00,,,0.00,,2013-01-08 23:43:00,
2013-01-08 17:53:00,37.0,33.0,30.08,SSW,196,5.0,8.0,84,0.00,,,0.00,,2013-01-08 23:53:00,
2013-01-08 18:02:00,36.0,32.0,30.07,South,188,4.0,10.0,85,0.00,,,0.00,,2013-01-09 00:02:00,
2013-01-08 18:12:00,36.0,32.0,30.07,South,188,4.0,10.0,85,0.00,,,0.00,,2013-01-09 00:12:00,
2013-01-08 18:22:00,36.0,32.0,30.07,South,190,6.0,9.0,85,0.00,,,0.00,,2013-01-09 00:22:00,
2013-01-08 18:33:00,36.0,32.0,30.07,South,180,5.0,10.0,85,0.00,,,0.00,,2013-01-09 00:33:00,
2013-01-08 18:42:00,36.0,32.0,30.07,South,180,5.0,10.0,85,0.00,,,0.00,,2013-01-09 00:42:00,
2013-01-08 18:53:00,35.0,31.0,30.08,South,188,6.0,9.0,85,0.00,,,0.00,,2013-01-09 00:53:00,
2013-01-08 19:02:00,36.0,31.0,30.08,SSE,163,6.0,9.0,83,0.00,,,0.00,,2013-01-09 01:02:00,
2013-01-08 19:12:00,36.0,31.0,30.08,SSE,163,6.0,9.0,83,0.00,,,0.00,,2013-01-09 01:12:00,
2013-01-08 19:22:00,37.0,32.0,30.08,South,171,5.0,11.0,82,0.00,,,0.00,,2013-01-09 01:22:00,
2013-01-08 19:32:00,37.0,32.0,30.07,South,176,5.0,12.0,81,0.00,,,0.00,,2013-01-09 01:32:00,
2013-01-08 19:42:00,37.0,32.0,30.07,South,176,5.0,12.0,81,0.00,,,0.00,,2013-01-09 01:42:00,
2013-01-08 19:52:00,37.0,32.0,30.06,SSW,196,5.0,11.0,82,0.00,,,0.00,,2013-01-09 01:52:00,
2013-01-08 20:02:00,37.0,32.0,30.06,South,176,7.0,14.0,82,0.00,,,0.00,,2013-01-09 02:02:00,
2013-01-08 20:12:00,37.0,32.0,30.06,South,176,7.0,14.0,82,0.00,,,0.00,,2013-01-09 02:12:00,
2013-01-08 20:22:00,37.0,32.0,30.05,South,171,6.0,16.0,81,0.00,,,0.00,,2013-01-09 02:22:00,
2013-01-08 20:32:00,37.0,31.0,30.06,SSW,208,7.0,15.0,80,0.00,,,0.00,,2013-01-09 02:32:00,
2013-01-08 20:42:00,37.0,31.0,30.06,SSW,208,7.0,15.0,80,0.00,,,0.00,,2013-01-09 02:42:00,
2013-01-08 20:53:00,37.0,31.0,30.07,South,178,8.0,16.0,80,0.00,,,0.00,,2013-01-09 02:53:00,
2013-01-08 21:03:00,37.0,31.0,30.08,SSW,196,4.0,13.0,80,0.00,,,0.00,,2013-01-09 03:03:00,
2013-01-08 21:12:00,37.0,31.0,30.08,SSW,196,4.0,13.0,80,0.00,,,0.00,,2013-01-09 03:12:00,
2013-01-08 21:22:00,37.0,31.0,30.07,SSE,163,6.0,14.0,80,0.00,,,0.00,,2013-01-09 03:22:00,
2013-01-08 21:33:00,37.0,31.0,30.07,SSE,163,6.0,14.0,80,0.00,,,0.00,,2013-01-09 03:33:00,
2013-01-08 21:43:00,37.0,31.0,30.07,SSE,163,6.0,14.0,80,0.00,,,0.00,,2013-01-09 03:43:00,
2013-01-08 21:53:00,37.0,31.0,30.07,SSW,203,6.0,11.0,80,0.00,,,0.00,,2013-01-09 03:53:00,
2013-01-08 22:02:00,37.0,31.0,30.06,SSE,162,5.0,10.0,79,0.00,,,0.00,,2013-01-09 04:02:00,
2013-01-08 22:12:00,37.0,31.0,30.06,SSE,162,5.0,10.0,79,0.00,,,0.00,,2013-01-09 04:12:00,
2013-01-08 22:22:00,37.0,31.0,30.06,SSE,161,5.0,11.0,80,0.00,,,0.00,,2013-01-09 04:22:00,
2013-01-08 22:32:00,37.0,31.0,30.06,South,190,5.0,8.0,80,0.00,,,0.00,,2013-01-09 04:32:00,
2013-01-08 22:42:00,37.0,31.0,30.06,South,190,5.0,8.0,80,0.00,,,0.00,,2013-01-09 04:42:00,
2013-01-08 22:52:00,38.0,32.0,30.06,SSW,202,6.0,14.0,80,0.00,,,0.00,,2013-01-09 04:52:00,
2013-01-08 23:03:00,38.0,32.0,30.05,SW,217,6.0,12.0,80,0.00,,,0.00,,2013-01-09 05:03:00,
2013-01-08 23:12:00,38.0,32.0,30.05,SW,217,6.0,12.0,80,0.00,,,0.00,,2013-01-09 05:12:00,
2013-01-08 23:22:00,38.0,33.0,30.05,South,190,7.0,13.0,81,0.00,,,0.00,,2013-01-09 05:22:00,
2013-01-08 23:33:00,38.0,32.0,30.04,SSE,167,6.0,13.0,80,0.00,,,0.00,,2013-01-09 05:33:00,
2013-01-08 23:42:00,38.0,32.0,30.04,SSE,167,6.0,13.0,80,0.00,,,0.00,,2013-01-09 05:42:00,
2013-01-08 23:53:00,38.0,32.0,30.04,SSE,167,6.0,13.0,80,0.00,,,0.00,,2013-01-09 05:53:00,